カタログに戻る

FLOCK 4Q 9

運用中科学SSO
NORAD 58322·PAYLOAD·🇺🇸 United States

打ち上げ Nov 11, 2023 から Vandenberg Space Force Base

Loading…

次のパス (今後24時間)

TLE

最新Source: CelesTrak SupGP

元期: Sep 14, 2026, 18:45 UTC

1 58322C 23174BU  26257.78148148  .00022345  00000+0  34147-3 0  2574
2 58322  97.3818 348.7786 0006476 164.1311 264.0209 15.54386962    14

AllMySatでFLOCK 4Q 9をリアルタイム追跡

Download on the App Store